Regional Weather Roundup
Issued by NWS

Home | Current Version | Previous Version | Graphics & Text | Print | Product List | Glossary On
Versions: 1 2 3 4 5 6 7 8 9 10 11 12 13 14 15 16 17 18 19 20 21 22 23 24 25 26 27 28 29 30 31 32 33 34 35 36 37 38 39 40 41 42 43 44 45 46 47 48 49 50
825
ASUS45 KPSR 220010
RWRAZ

ARIZONA HOURLY REGIONAL WEATHER ROUNDUP
NATIONAL WEATHER SERVICE PHOENIX AZ
500 PM MST SAT JAN 21 2017

NOTE: FAIR INDICATES FEW OR NO CLOUDS BELOW 12,000 FEET WITH NO
SIGNIFICANT WEATHER AND/OR OBSTRUCTIONS TO VISIBILITY.

AZZ001>003-036-220100-
NORTHWEST ARIZONA

CITY           SKY/WX    TMP DP  RH WIND       PRES   REMARKS
BULLHEAD CITY  CLEAR     63  32  31 S7        29.86R
KINGMAN        CLEAR     47  24  40 SW17      29.88R
6HR MIN TEMP:  43; 6HR MAX TEMP:  49;

$$

AZZ004>008-015-016-018-220100-
NORTH CENTRAL ARIZONA

CITY           SKY/WX    TMP DP  RH WIND       PRES   REMARKS
GRAND CANYON   MOCLDY    30  25  81 SW8       29.82R WCI  22
6HR MIN TEMP:  27; 6HR MAX TEMP:  32; 6HR PCP: TRACE;

WILLIAMS       CLOUDY    32  25  74 W6G15     29.84R WCI  26
PRESCOTT       MOCLDY    38  30  73 SW9       29.87R WCI  31
6HR MIN TEMP:  33; 6HR MAX TEMP:  39;

FLAGSTAFF      MOCLDY    29  21  72 W8        29.83R WCI  21
6HR MIN TEMP:  26; 6HR MAX TEMP:  30; 6HR PCP: TRACE;

PAYSON         PTCLDY    36  32  87 SW7G13    29.89R WCI  30
PAGE           CLOUDY    45  18  34 W13G21    29.75R
6HR MIN TEMP:  43; 6HR MAX TEMP:  46;

$$

AZZ009>014-017-220100-
NORTHEAST ARIZONA

CITY           SKY/WX    TMP DP  RH WIND       PRES   REMARKS
WINSLOW        CLEAR     41  24  51 W24G33    29.79R
6HR MIN TEMP:  38; 6HR MAX TEMP:  45;

SAINT JOHNS    CLOUDY    37  25  61 W23G31    29.74R WCI  26
6HR MIN TEMP:  29; 6HR MAX TEMP:  38; 6HR PCP:  0.02;

SHOW LOW       CLEAR     28  21  74 SW16G24   29.81R WCI  17
$$

AZZ023-220100-
GREATER PHOENIX AREA

CITY           SKY/WX    TMP DP  RH WIND       PRES   REMARKS
PHOENIX        PTCLDY    58  32  37 W16G22    29.90R
6HR MIN TEMP:  55; 6HR MAX TEMP:  60;

BUCKEYE        CLEAR     57  32  38 W12       29.91R
GLENDALE       PTCLDY    59  34  38 SW12      29.92R
LUKE AFB       CLEAR     59  34  39 W8        29.89R
6HR MIN TEMP:  55; 6HR MAX TEMP:  59;

DEER VALLEY    CLEAR     56  33  42 W14       29.89R
6HR MIN TEMP:  52; 6HR MAX TEMP:  57;

SCOTTSDALE     CLEAR     57  32  38 W9        29.90R
6HR MIN TEMP:  53; 6HR MAX TEMP:  57;

MESA-FALCON    PTCLDY   N/A N/A N/A W12G20    29.88R
MESA-GATEWAY   MOCLDY    55  36  47 W13       29.92
CHANDLER       CLEAR     57  36  44 SW9       29.91R
$$

AZZ027-028-220100-
SOUTHWEST MARICOPA COUNTY AND PINAL COUNTY

CITY           SKY/WX    TMP DP  RH WIND       PRES   REMARKS
CASA GRANDE    CLEAR     56  35  45 MISG      29.92R
6HR MIN TEMP:  53; 6HR MAX TEMP:  57;

GILA BEND      FAIR      59  37  43 W18       29.92R
6HR MIN TEMP:  55; 6HR MAX TEMP:  60;

$$

AZZ503-504-507>509-220100-
SOUTHEAST ARIZONA

CITY           SKY/WX    TMP DP  RH WIND       PRES   REMARKS
TUCSON         PTCLDY    55  28  35 W9G21     29.94R
6HR MIN TEMP:  52; 6HR MAX TEMP:  57; 6HR PCP: TRACE;

DAVIS-MONTHAN  CLEAR     53  28  38 W13G21    29.92R
6HR MIN TEMP:  50; 6HR MAX TEMP:  55; 6HR PCP: TRACE;

RYAN FIELD     PTCLDY    55  30  38 W15G22    29.94R
NOGALES        CLEAR     49  25  39 SW13      29.94R
6HR MIN TEMP:  46; 6HR MAX TEMP:  52; 6HR PCP: TRACE;

SIERRA VISTA   CLEAR     44  25  46 W24G32    29.91R
6HR MIN TEMP:  38; 6HR MAX TEMP:  47; 6HR PCP:  0.02;

DOUGLAS        PTCLDY    49  25  39 NW18G28   29.90R
6HR MIN TEMP:  46; 6HR MAX TEMP:  51; 6HR PCP: TRACE;

SAFFORD        CLOUDY    46  33  60 NW21G29   29.85R
6HR MIN TEMP:  44; 6HR MAX TEMP:  50; 6HR PCP: TRACE;

$$

AZZ020-021-025-026-031-220100-
SOUTHWEST ARIZONA

CITY           SKY/WX    TMP DP  RH WIND       PRES   REMARKS
YUMA           SUNNY     63  39  41 W14       29.93R
6HR MIN TEMP:  59; 6HR MAX TEMP:  65;

$$

CAZ031-033-041-043-047-048-061-220100-
SOUTHERN CALIFORNIA

CITY           SKY/WX    TMP DP  RH WIND       PRES   REMARKS
DOWNTOWN L.A.  MOSUNNY   61  46  57 VRB6      29.97R
6HR MIN TEMP:  58; 6HR MAX TEMP:  63;

L.A. AIRPORT   MOSUNNY   57  44  62 W16       29.99R
6HR MIN TEMP:  56; 6HR MAX TEMP:  59;

SAN DIEGO      PTSUNNY   60  43  53 NW9       30.04R
6HR MIN TEMP:  55; 6HR MAX TEMP:  61; 6HR PCP:  0.03;

BURBANK        MOSUNNY   57  42  57 S10       29.95R
6HR MIN TEMP:  52; 6HR MAX TEMP:  59;

ONTARIO        PTSUNNY   55  41  59 SW7       29.98R
6HR MIN TEMP:  49; 6HR MAX TEMP:  56;

RIVERSIDE      PTSUNNY   56  41  57 CALM      29.98R
6HR MIN TEMP:  49; 6HR MAX TEMP:  58;

PALM SPRINGS   SUNNY     62  36  37 NW8G18    29.93R
6HR MIN TEMP:  59; 6HR MAX TEMP:  64;

EL CENTRO NAS  SUNNY     62  38  40 W14       29.96R
6HR MIN TEMP:  59; 6HR MAX TEMP:  65;

IMPERIAL       SUNNY     62  39  42 W16       29.92R
6HR MIN TEMP:  60; 6HR MAX TEMP:  65;

BLYTHE         SUNNY     63  35  35 SW13      29.90R
6HR MIN TEMP:  57; 6HR MAX TEMP:  64;

NEEDLES        CLEAR     63  29  27 W9        29.87R
6HR MIN TEMP:  57; 6HR MAX TEMP:  65;

$$

NVZ020-UTZ003-220100-
SOUTHERN NEVADA-UTAH

CITY           SKY/WX    TMP DP  RH WIND       PRES   REMARKS
LAS VEGAS      PTCLDY    55  26  32 SW12      29.84R
6HR MIN TEMP:  50; 6HR MAX TEMP:  57;

SALT LAKE CITY MOCLDY    35  30  82 CALM      29.75R
6HR MIN TEMP:  32; 6HR MAX TEMP:  36; 6HR PCP:  0.07;

$$

NMZ009-TXZ055-220100-
NEW MEXICO-WEST TEXAS

CITY           SKY/WX    TMP DP  RH WIND       PRES   REMARKS
ALBUQUERQUE    PTCLDY    40  18  41 W22G31    29.59R WCI  30
6HR MIN TEMP:  40; 6HR MAX TEMP:  46;

EL PASO        PTCLDY    47  22  37 W43G63    29.70R
6HR MIN TEMP:  44; 6HR MAX TEMP:  49; 6HR PCP:  0.02;

$$


........................KEY........................
SKY/WX - SKY CONDITION/WEATHER
TMP    - TEMPERATURE IN FAHRENHEIT
DP     - DEW POINT IN FAHRENHEIT
RH     - RELATIVE HUMIDITY IN PERCENT
WIND   - DIRECTION AND SPEED IN MILES PER HOUR (MPH)
VRB    - VARIABLE WIND DIRECTION
PRES   - MEAN SEA LEVEL PRESSURE IN INCHES OF MERCURY
         F - FALLING PRESSURE   R - RISING PRESSURE
         S - STEADY PRESSURE
VSB    - VISIBILITY IN MILES
HX     - HEAT INDEX IN FAHRENHEIT
WCI    - WIND CHILL INDEX IN FAHRENHEIT
TC     - TEMPERATURE IN CELSIUS WHICH IS ALSO KNOWN AS
         TEMPERATURE IN CENTIGRADE
AFB    - AIR FORCE BASE
         LUKE AFB IS LUKE AIR FORCE BASE
         DAVIS-MONTHAN IS DAVIS-MONTHAN AIR FORCE BASE
NAS    - NAVAL AIR STATION
         EL CENTRO NAS IS EL CENTRO NAVAL AIR STATION
N/A    - NOT AVAILABLE





USA.gov is the U.S. government's official web portal to all federal, state and local government web resources and services.